Location: Dürabuch
(48.2640°N, 11.2185°E)
Time: 03:55:11
(UTC+00:00)

CZ-2C R/B - Pass Details

Date: 23 May 2024
Orbit: 784 x 868 km, 98.3° (Epoch: 19 June)

Event Time Altitude Azimuth Distance (km) Brightness Sun altitude
Exits shadow 00:47:48 11° 146° (SE) 2,300 4.7 -17.8°
Maximum altitude 00:52:43 55° 70° (ENE) 939 3.2 -17.5°
Drops below altitude 10° 00:57:47 10° 354° (N) 2,362 5.9 -17.1°
Sets 01:00:10 0° 350° (N) 3,302 6.7 -17.0°
